Radiation Dose at Monitoring Post of Fukushima Daini Nuclear Power Station
Date,Time,MP-1(microSv/h),MP-2(microSv/h),MP-3(microSv/h),MP-4(microSv/h),MP-5(microSv/h),MP-6(microSv/h),MP-7(microSv/h),Wind Direction,Wind Velocity(m/s),Rain
2020/09/26,00:00,0.169,0.151,0.247,0.236,0.240,0.131,0.081,north-northwest,9.0,No
2020/09/26,00:10,0.171,0.151,0.249,0.236,0.238,0.131,0.080,north-northwest,9.5,No
2020/09/26,00:20,0.168,0.151,0.247,0.237,0.240,0.131,0.081,north-northwest,8.5,No
2020/09/26,00:30,0.170,0.152,0.249,0.235,0.238,0.131,0.081,north-northwest,9.8,No
2020/09/26,00:40,0.170,0.151,0.248,0.237,0.240,0.132,0.081,north-northwest,8.3,No
2020/09/26,00:50,0.170,0.151,0.249,0.235,0.238,0.133,0.081,northwest,8.1,No
2020/09/26,01:00,0.170,0.151,0.246,0.237,0.240,0.130,0.080,north-northwest,9.0,No
2020/09/26,01:10,0.169,0.150,0.248,0.234,0.238,0.132,0.081,northwest,7.6,No
2020/09/26,01:20,0.169,0.151,0.248,0.236,0.239,0.132,0.081,north-northwest,7.5,No
2020/09/26,01:30,0.168,0.151,0.250,0.234,0.239,0.132,0.080,northwest,7.7,No
2020/09/26,01:40,0.169,0.152,0.247,0.236,0.238,0.133,0.080,north-northwest,6.9,No
2020/09/26,01:50,0.169,0.150,0.249,0.235,0.239,0.132,0.081,northwest,7.7,No
2020/09/26,02:00,0.169,0.152,0.248,0.236,0.238,0.132,0.080,north-northwest,7.1,No
2020/09/26,02:10,0.170,0.151,0.251,0.235,0.240,0.133,0.080,northwest,6.6,No
2020/09/26,02:20,0.169,0.151,0.248,0.238,0.239,0.132,0.081,northwest,6.6,No
2020/09/26,02:30,0.171,0.151,0.249,0.235,0.240,0.133,0.081,north-northwest,6.0,No
2020/09/26,02:40,0.169,0.153,0.248,0.236,0.238,0.133,0.080,north-northwest,6.3,No
2020/09/26,02:50,0.170,0.151,0.250,0.236,0.240,0.132,0.081,north,6.8,No
2020/09/26,03:00,0.170,0.152,0.248,0.237,0.238,0.133,0.081,north,6.4,No
2020/09/26,03:10,0.171,0.151,0.248,0.235,0.241,0.132,0.081,north-northwest,6.1,No
2020/09/26,03:20,0.169,0.152,0.246,0.238,0.238,0.133,0.080,north-northwest,6.0,No
2020/09/26,03:30,0.171,0.152,0.250,0.236,0.240,0.132,0.081,north-northwest,7.6,No
2020/09/26,03:40,0.170,0.151,0.249,0.236,0.238,0.132,0.081,north-northwest,7.1,No
2020/09/26,03:50,0.170,0.152,0.249,0.235,0.240,0.133,0.081,north-northwest,8.1,No
2020/09/26,04:00,0.170,0.152,0.248,0.237,0.239,0.133,0.081,north-northwest,7.7,No
2020/09/26,04:10,0.170,0.151,0.251,0.237,0.240,0.133,0.080,northwest,7.2,No
2020/09/26,04:20,0.171,0.153,0.248,0.237,0.240,0.133,0.082,northwest,6.2,No
2020/09/26,04:30,0.170,0.152,0.252,0.236,0.240,0.132,0.081,northwest,6.3,No
2020/09/26,04:40,0.171,0.152,0.249,0.236,0.240,0.132,0.082,northwest,6.4,No
2020/09/26,04:50,0.170,0.152,0.251,0.237,0.239,0.133,0.081,northwest,6.9,No
2020/09/26,05:00,0.171,0.151,0.249,0.237,0.239,0.132,0.080,northwest,6.2,No
2020/09/26,05:10,0.170,0.151,0.251,0.237,0.238,0.133,0.081,northwest,6.3,No
2020/09/26,05:20,0.171,0.153,0.248,0.237,0.240,0.132,0.082,northwest,6.6,No
2020/09/26,05:30,0.170,0.152,0.250,0.238,0.238,0.133,0.080,north-northwest,6.3,No
2020/09/26,05:40,0.173,0.152,0.249,0.237,0.241,0.133,0.082,northwest,6.5,No
2020/09/26,05:50,0.170,0.152,0.250,0.236,0.239,0.134,0.081,northwest,6.6,No
2020/09/26,06:00,0.173,0.152,0.249,0.236,0.241,0.133,0.081,northwest,7.2,No
2020/09/26,06:10,0.170,0.152,0.251,0.236,0.238,0.134,0.081,north-northwest,7.3,No
2020/09/26,06:20,0.172,0.152,0.249,0.238,0.241,0.133,0.081,northwest,6.5,No
2020/09/26,06:30,0.170,0.151,0.251,0.237,0.238,0.133,0.082,northwest,6.1,No
2020/09/26,06:40,0.171,0.153,0.249,0.236,0.241,0.134,0.082,northwest,6.7,No
2020/09/26,06:50,0.171,0.152,0.250,0.238,0.239,0.133,0.081,northwest,6.3,No
2020/09/26,07:00,0.169,0.152,0.249,0.236,0.240,0.134,0.081,northwest,5.4,No
2020/09/26,07:10,0.172,0.152,0.249,0.238,0.241,0.132,0.081,northwest,5.6,No
2020/09/26,07:20,0.171,0.153,0.250,0.237,0.238,0.133,0.081,northwest,5.8,No
2020/09/26,07:30,0.172,0.153,0.249,0.239,0.240,0.133,0.081,northwest,5.7,No
2020/09/26,07:40,0.171,0.152,0.250,0.236,0.238,0.133,0.081,north-northwest,6.1,No
2020/09/26,07:50,0.171,0.153,0.249,0.238,0.242,0.134,0.081,northwest,6.0,No
2020/09/26,08:00,0.170,0.152,0.251,0.236,0.239,0.133,0.081,north-northwest,6.2,No
2020/09/26,08:10,0.171,0.153,0.250,0.238,0.240,0.134,0.082,northwest,6.3,No
2020/09/26,08:20,0.170,0.151,0.250,0.236,0.241,0.133,0.081,northwest,5.2,No
2020/09/26,08:30,0.172,0.152,0.249,0.236,0.238,0.132,0.081,north-northwest,5.2,No
2020/09/26,08:40,0.172,0.152,0.249,0.238,0.242,0.134,0.082,north-northwest,3.8,No
2020/09/26,08:50,0.170,0.151,0.250,0.235,0.238,0.133,0.081,north-northwest,4.0,No
2020/09/26,09:00,0.172,0.153,0.250,0.237,0.238,0.133,0.081,north-northwest,4.0,No
2020/09/26,09:10,0.171,0.152,0.250,0.237,0.241,0.134,0.082,north,3.6,No
2020/09/26,09:20,0.170,0.153,0.249,0.235,0.239,0.133,0.080,north,4.3,No
2020/09/26,09:30,0.172,0.152,0.250,0.238,0.240,0.132,0.081,north-northwest,4.1,No
2020/09/26,09:40,0.170,0.152,0.250,0.237,0.241,0.133,0.081,north-northwest,3.6,No
2020/09/26,09:50,0.172,0.153,0.249,0.235,0.238,0.133,0.081,north-northwest,3.5,No
2020/09/26,10:00,0.172,0.152,0.251,0.239,0.239,0.133,0.081,north,4.1,No
2020/09/26,10:10,0.170,0.152,0.250,0.237,0.241,0.134,0.081,north-northwest,3.4,No
2020/09/26,10:20,0.172,0.153,0.249,0.236,0.241,0.133,0.080,northwest,3.7,No
2020/09/26,10:30,0.171,0.152,0.251,0.238,0.236,0.133,0.081,north-northwest,4.5,No
2020/09/26,10:40,0.170,0.152,0.249,0.236,0.242,0.134,0.081,north-northwest,4.0,No
2020/09/26,10:50,0.172,0.153,0.249,0.236,0.240,0.133,0.081,north,4.3,No
2020/09/26,11:00,0.170,0.152,0.251,0.239,0.238,0.132,0.080,north-northwest,3.9,No
2020/09/26,11:10,0.172,0.153,0.249,0.238,0.242,0.134,0.081,north,4.1,No
2020/09/26,11:20,0.172,0.153,0.251,0.237,0.241,0.133,0.081,north-northwest,4.5,No
2020/09/26,11:30,0.171,0.152,0.250,0.239,0.239,0.133,0.080,north-northwest,3.2,No
2020/09/26,11:40,0.172,0.153,0.249,0.237,0.242,0.134,0.082,north-northwest,4.4,No
2020/09/26,11:50,0.171,0.152,0.251,0.237,0.239,0.134,0.081,north-northwest,3.8,No
2020/09/26,12:00,0.171,0.153,0.250,0.238,0.240,0.133,0.081,north,3.5,No
2020/09/26,12:10,0.173,0.153,0.251,0.236,0.242,0.134,0.082,north,5.0,No
2020/09/26,12:20,0.172,0.152,0.251,0.240,0.240,0.134,0.082,north-northeast,5.5,Yes
2020/09/26,12:30,0.174,0.154,0.250,0.238,0.241,0.136,0.082,north-northeast,6.5,Yes
2020/09/26,12:40,0.173,0.156,0.253,0.240,0.244,0.136,0.084,north-northeast,6.8,Yes
2020/09/26,12:50,0.175,0.156,0.253,0.241,0.242,0.137,0.084,north-northeast,6.5,Yes
2020/09/26,13:00,0.174,0.156,0.253,0.240,0.244,0.139,0.085,north,4.3,Yes
2020/09/26,13:10,0.175,0.157,0.252,0.241,0.243,0.138,0.085,north-northeast,6.9,Yes
2020/09/26,13:20,0.174,0.156,0.254,0.240,0.244,0.138,0.086,northeast,7.6,Yes
2020/09/26,13:30,0.174,0.156,0.252,0.240,0.241,0.137,0.085,north-northeast,6.5,Yes
2020/09/26,13:40,0.173,0.155,0.253,0.239,0.244,0.137,0.085,northeast,6.9,Yes
2020/09/26,13:50,0.173,0.154,0.251,0.240,0.241,0.136,0.083,northeast,6.1,Yes
2020/09/26,14:00,0.173,0.154,0.251,0.238,0.243,0.135,0.084,northeast,6.3,No
2020/09/26,14:10,0.172,0.155,0.249,0.239,0.239,0.135,0.083,northeast,7.0,No
2020/09/26,14:20,0.173,0.154,0.251,0.236,0.242,0.135,0.083,northeast,6.4,Yes
2020/09/26,14:30,0.171,0.154,0.248,0.238,0.241,0.134,0.082,northeast,6.1,Yes
2020/09/26,14:40,0.173,0.153,0.249,0.236,0.241,0.135,0.082,northeast,6.8,Yes
2020/09/26,14:50,0.171,0.153,0.248,0.238,0.240,0.134,0.081,northeast,7.8,Yes
2020/09/26,15:00,0.172,0.153,0.250,0.237,0.241,0.134,0.082,northeast,7.2,Yes
2020/09/26,15:10,0.173,0.154,0.248,0.237,0.242,0.134,0.082,northeast,8.1,Yes
2020/09/26,15:20,0.172,0.154,0.251,0.237,0.239,0.135,0.081,northeast,7.4,No
2020/09/26,15:30,0.173,0.154,0.249,0.237,0.241,0.133,0.081,northeast,7.4,No
2020/09/26,15:40,0.171,0.153,0.251,0.237,0.239,0.134,0.082,northeast,6.0,No
2020/09/26,15:50,0.172,0.154,0.248,0.238,0.242,0.133,0.081,north-northeast,7.6,No
2020/09/26,16:00,0.171,0.153,0.249,0.235,0.239,0.134,0.081,northeast,7.9,No
2020/09/26,16:10,0.172,0.153,0.249,0.237,0.241,0.134,0.081,northeast,7.5,No
2020/09/26,16:20,0.171,0.152,0.250,0.236,0.240,0.133,0.080,northeast,6.3,No
2020/09/26,16:30,0.171,0.152,0.248,0.235,0.239,0.133,0.081,northeast,7.7,Yes
2020/09/26,16:40,0.171,0.153,0.249,0.237,0.239,0.133,0.081,north-northeast,5.9,Yes
2020/09/26,16:50,0.171,0.153,0.248,0.236,0.239,0.134,0.080,north-northeast,4.6,Yes
2020/09/26,17:00,0.172,0.152,0.250,0.237,0.241,0.132,0.080,north-northeast,2.8,Yes
2020/09/26,17:10,0.171,0.153,0.249,0.236,0.239,0.133,0.081,north-northeast,4.0,Yes
2020/09/26,17:20,0.172,0.151,0.250,0.238,0.241,0.133,0.080,north-northeast,3.7,No
2020/09/26,17:30,0.171,0.153,0.249,0.235,0.238,0.133,0.081,north,2.1,No
2020/09/26,17:40,0.172,0.151,0.248,0.237,0.241,0.133,0.081,north,3.6,No
2020/09/26,17:50,0.171,0.153,0.249,0.235,0.237,0.132,0.081,north-northwest,2.4,Yes
2020/09/26,18:00,0.172,0.152,0.249,0.237,0.239,0.134,0.081,northeast,4.9,No
2020/09/26,18:10,0.171,0.152,0.249,0.235,0.239,0.133,0.080,northeast,6.1,No
2020/09/26,18:20,0.171,0.151,0.248,0.237,0.241,0.133,0.080,northeast,6.4,No
2020/09/26,18:30,0.171,0.153,0.249,0.236,0.239,0.132,0.081,northeast,6.6,No
2020/09/26,18:40,0.172,0.151,0.248,0.238,0.239,0.134,0.081,northeast,6.2,No
2020/09/26,18:50,0.172,0.152,0.249,0.236,0.240,0.132,0.080,northeast,6.4,Yes
2020/09/26,19:00,0.171,0.153,0.247,0.237,0.239,0.133,0.081,northeast,7.2,No
2020/09/26,19:10,0.173,0.152,0.249,0.235,0.240,0.133,0.080,northeast,7.2,No
2020/09/26,19:20,0.171,0.152,0.248,0.237,0.238,0.133,0.081,northeast,7.5,Yes
2020/09/26,19:30,0.172,0.152,0.250,0.235,0.240,0.134,0.080,northeast,8.1,No
2020/09/26,19:40,0.170,0.152,0.247,0.236,0.239,0.133,0.081,northeast,8.3,No
2020/09/26,19:50,0.172,0.152,0.248,0.236,0.240,0.134,0.081,northeast,8.7,No
2020/09/26,20:00,0.171,0.152,0.248,0.237,0.238,0.133,0.081,northeast,7.5,No
2020/09/26,20:10,0.171,0.153,0.249,0.236,0.241,0.133,0.081,east-northeast,7.7,No
2020/09/26,20:20,0.172,0.152,0.248,0.237,0.239,0.133,0.080,northeast,8.1,No
2020/09/26,20:30,0.171,0.153,0.250,0.236,0.240,0.133,0.081,northeast,7.3,Yes
2020/09/26,20:40,0.172,0.152,0.248,0.235,0.240,0.134,0.081,northeast,8.1,Yes
2020/09/26,20:50,0.172,0.153,0.250,0.237,0.240,0.133,0.080,northeast,7.5,Yes
2020/09/26,21:00,0.173,0.153,0.249,0.236,0.240,0.134,0.081,northeast,6.8,Yes
2020/09/26,21:10,0.172,0.153,0.251,0.237,0.240,0.134,0.081,northeast,7.4,Yes
2020/09/26,21:20,0.173,0.154,0.249,0.237,0.240,0.135,0.082,northeast,6.2,Yes
2020/09/26,21:30,0.172,0.153,0.252,0.238,0.241,0.134,0.082,northeast,4.5,Yes
2020/09/26,21:40,0.173,0.154,0.249,0.237,0.241,0.135,0.082,northeast,6.5,Yes
2020/09/26,21:50,0.172,0.155,0.249,0.237,0.239,0.135,0.082,northeast,7.0,Yes
2020/09/26,22:00,0.174,0.154,0.249,0.236,0.240,0.135,0.083,northeast,5.3,Yes
2020/09/26,22:10,0.172,0.155,0.250,0.237,0.240,0.135,0.083,northeast,4.7,Yes
2020/09/26,22:20,0.173,0.154,0.249,0.238,0.242,0.135,0.082,northeast,6.2,Yes
2020/09/26,22:30,0.172,0.154,0.250,0.237,0.239,0.135,0.083,northeast,5.4,Yes
2020/09/26,22:40,0.173,0.152,0.248,0.236,0.240,0.133,0.082,north-northeast,4.3,No
2020/09/26,22:50,0.172,0.154,0.249,0.237,0.239,0.135,0.081,northeast,7.0,Yes
2020/09/26,23:00,0.174,0.153,0.247,0.236,0.240,0.134,0.082,northeast,7.0,Yes
2020/09/26,23:10,0.173,0.153,0.248,0.236,0.239,0.135,0.082,northeast,5.5,Yes
2020/09/26,23:20,0.173,0.154,0.247,0.236,0.240,0.133,0.082,north,3.1,Yes
2020/09/26,23:30,0.172,0.154,0.247,0.237,0.240,0.134,0.082,north,2.4,Yes
2020/09/26,23:40,0.173,0.153,0.249,0.238,0.241,0.134,0.081,north,2.8,Yes
2020/09/26,23:50,0.173,0.155,0.247,0.234,0.238,0.135,0.082,north-northwest,4.3,Yes
